Temperature
13 13 13 13 13 12 12 12 12 12 12 12 12 11 11 11 11 11 11 11 11 11 11 11 11 11 11 11 11 11 11 12 12 12 12 12 11 11 11 11 11 11 12
13 13 13 13 12 12 12 12 12 12 12 11 11 11 11 11 11 11 11 11 11 11 11 11 11 11 11 11 11 11 11 11 11 11 12 12 11 11 11 11 11 11 11
13 13 13 12 12 12 12 12 12 12 11 11 11 11 11 11 11 11 11 11 11 11 10 10 10 10 10 10 10 10 11 11 11 11 11 11 11 11 11 11 11 11 11
13 13 13 12 12 12 12 12 12 12 11 11 11 11 11 11 11 10 10 11 11 11 10 10 10 10 10 10 10 10 10 10 11 11 11 11 11 11 11 11 11 11 11
13 13 13 12 12 12 12 12 12 12 11 11 11 11 11 11 11 11 10 10 10 10 10 10 10 10 10 10 10 10 10 10 10 11 11 11 11 11 11 11 11 11 11
13 13 13 12 12 12 12 12 12 12 11 11 11 11 11 11 11 11 11 10 10 10 10 10 10 10 10 10 10 10 10 10 10 10 10 10 10 10 10 10 10 10 10
13 13 13 13 12 12 12 12 12 11 11 11 11 11 11 11 11 11 11 10 10 10 10 10 10 10 10 10 10 10 10 10 10 9 10 10 10 10 10 10 10 10 10
13 13 13 13 12 12 12 12 11 11 11 11 11 11 11 11 11 11 11 10 10 10 10 10 10 10 10 10 9 9 9 9 9 9 9 9 9 9 9 9 9 9 9
13 13 13 13 12 12 12 12 11 11 11 11 11 11 11 10 10 11 11 10 10 10 10 10 9 9 10 9 9 9 9 9 9 9 9 9 9 9 9 9 9 9 10
13 13 13 12 12 12 12 12 11 11 11 11 11 11 10 10 10 10 10 10 10 10 10 10 10 9 9 9 9 9 9 9 9 9 9 9 9 9 9 9 9 9 10
13 13 12 12 12 12 12 11 11 11 11 11 11 10 10 10 10 10 10 10 10 10 10 10 10 9 9 9 9 9 9 9 9 9 9 9 9 9 9 9 9 9 9
12 12 12 12 12 12 11 11 11 11 11 11 11 11 10 10 10 10 10 10 10 10 9 9 9 9 9 9 9 9 9 9 9 9 9 9 9 9 9 8 8 8 8
12 12 12 12 12 12 11 11 11 11 11 11 11 11 11 10 10 10 10 10 10 10 9 9 9 9 9 9 9 9 9 8 9 9 8 9 8 8 8 8 8 8 8
12 12 12 12 12 11 11 11 11 11 11 11 11 11 11 10 10 10 10 10 10 10 9 9 9 9 9 9 9 9 8 8 8 8 8 8 8 8 8 8 8 8 8
12 12 12 12 12 11 11 11 11 11 11 11 11 11 10 10 10 10 9 9 9 9 9 9 9 9 9 9 8 8 8 8 8 7 7 8 8 8 8 8 8 8 8
12 12 12 12 12 12 12 11 11 11 11 11 11 10 10 10 9 9 9 9 9 9 9 9 9 9 9 8 8 8 8 8 7 7 7 7 7 8 8 8 8 7 8
11 11 12 12 12 12 12 12 12 11 11 11 11 10 10 9 9 9 9 9 9 9 9 9 8 8 8 8 8 8 8 8 7 7 7 7 7 7 7 7 7 7 7
11 12 12 12 12 12 12 12 12 12 11 11 11 10 10 9 9 9 9 9 9 9 9 8 8 8 8 8 8 8 8 7 7 7 7 7 7 7 7 7 7 7 7
12 12 11 11 12 12 12 12 12 12 12 11 11 11 10 10 9 9 9 9 9 9 9 8 8 8 8 8 8 8 7 7 7 7 7 7 7 7 7 7 7 7 7
11 11 11 11 12 12 12 12 12 12 12 11 11 11 10 10 10 9 9 9 9 9 8 8 8 8 8 8 8 8 7 7 7 7 7 7 7 7 7 7 7 7 7
12 12 11 11 12 12 12 12 12 11 11 11 11 10 10 10 10 9 9 9 9 9 8 8 8 8 8 8 8 7 7 7 7 7 7 7 7 7 6 6 6 6 6
12 12 12 12 12 11 11 11 11 11 11 11 11 10 10 10 10 9 9 9 9 8 8 8 8 8 7 7 7 7 7 7 7 7 7 7 6 6 6 6 6 6 6
12 12 12 12 11 11 11 11 11 11 11 11 11 10 10 10 9 9 9 9 8 8 8 8 8 8 7 7 7 7 7 7 6 6 6 6 6 6 6 6 6 6 6
12 12 12 11 11 11 11 11 11 11 11 11 10 10 10 9 9 9 9 8 8 8 8 8 7 7 7 7 7 7 7 7 6 6 6 6 6 6 6 6 6 6 6
11 11 11 11 11 11 11 11 11 11 10 10 10 10 10 9 9 9 8 8 8 8 7 7 7 7 7 7 7 7 7 7 7 6 6 6 6 6 6 6 6 6 6
11 11 11 11 11 11 11 11 10 10 10 10 10 9 9 9 9 9 8 8 8 7 7 7 7 7 6 6 6 7 7 7 6 6 6 6 6 6 6 6 6 6 6
Wind_Speed
2 2 2 1 1 2 2 2 2 1 1 1 2 2 3 3 4 4 5 5 5 5 5 6 6 6 5 5 5 6 6 6 7 6 6 5 5 7 5 7 8 8 8
3 2 2 2 2 2 2 2 2 2 2 2 2 2 3 3 3 4 5 5 6 6 6 6 6 5 5 6 6 6 6 6 7 8 7 6 6 7 7 7 7 8 7
3 2 2 2 2 2 2 2 2 2 1 2 2 2 2 2 3 4 4 5 5 6 6 6 6 6 6 5 6 7 6 7 7 8 8 6 6 6 6 7 7 6 7
3 2 2 3 3 2 2 1 2 2 2 2 2 3 3 3 3 4 4 4 5 5 6 6 6 6 6 6 6 7 7 7 7 7 7 6 6 5 6 6 6 5 5
3 3 3 3 3 2 2 2 2 2 2 2 3 3 3 3 3 4 4 4 5 5 6 6 6 5 5 6 6 6 6 6 6 6 7 6 6 4 5 5 5 5 5
3 3 3 3 3 3 2 2 2 2 3 3 3 3 3 3 3 3 5 5 4 4 4 5 5 6 6 7 6 7 7 7 7 6 7 7 7 6 5 6 5 5 5
3 3 3 3 3 3 3 3 3 3 3 4 4 3 3 3 2 3 5 5 4 3 4 4 4 4 5 6 6 7 8 8 9 8 8 8 7 7 6 7 6 6 6
3 4 4 3 3 4 4 4 3 3 3 4 4 4 3 3 2 4 5 5 4 4 4 4 4 3 4 5 6 6 7 7 8 7 8 8 7 6 7 7 7 7 7
4 4 4 4 4 4 4 4 4 3 4 4 4 4 4 3 2 4 6 5 4 4 4 4 4 3 3 4 6 7 7 7 7 7 6 6 6 6 6 6 7 7 7
4 4 4 4 4 4 4 4 4 4 4 4 4 4 4 4 3 4 5 5 4 4 3 3 2 2 3 3 5 6 6 6 6 6 6 7 8 7 8 8 8 8 7
4 4 4 4 4 4 4 3 4 4 4 5 5 4 4 4 2 2 4 4 5 4 4 3 2 1 2 3 4 4 6 7 7 6 5 5 5 5 6 6 6 7 7
4 4 4 4 4 4 4 4 4 4 5 5 4 5 3 2 2 2 2 4 6 5 4 4 3 0 3 4 3 4 6 7 5 4 4 4 4 5 4 4 5 6 6
4 4 4 5 4 4 4 5 4 4 4 5 5 5 4 3 1 2 4 4 5 4 4 3 3 4 5 4 4 5 5 4 3 3 4 4 4 4 3 3 4 5 6
4 4 4 4 4 4 4 4 5 5 5 6 6 5 5 4 4 4 3 3 3 4 4 3 6 7 6 4 3 3 3 2 3 4 3 4 4 3 3 3 4 4 4
4 4 5 4 4 4 4 4 5 5 5 6 6 6 6 5 5 6 5 5 5 5 5 4 3 3 3 2 2 2 2 2 2 3 3 3 3 3 3 3 3 4 4
4 4 4 4 4 4 4 3 2 3 2 2 4 5 3 3 4 4 5 6 6 6 4 3 3 3 4 3 3 2 2 2 3 3 4 3 4 4 3 3 3 4 4
5 5 5 5 5 5 5 5 4 3 3 2 2 3 3 3 4 5 6 7 6 5 3 3 3 3 4 3 3 3 3 3 3 4 4 4 4 3 3 3 3 3 3
6 5 5 5 5 5 5 5 5 5 4 3 2 3 4 4 5 6 7 6 3 2 3 3 3 4 4 3 3 4 3 3 2 3 3 3 3 4 3 3 3 3 3
6 5 4 5 5 5 5 5 5 5 5 4 3 1 4 5 6 6 5 3 4 3 3 3 3 4 4 3 4 3 3 3 3 3 3 3 3 3 3 3 3 2 3
5 5 5 5 5 5 5 5 5 5 5 5 5 4 3 3 4 3 3 4 4 4 4 4 4 4 4 4 4 4 3 3 3 3 3 3 3 3 3 3 3 3 3
5 4 4 6 5 5 5 5 5 5 5 5 4 4 7 6 5 5 5 5 5 5 5 5 4 4 4 4 4 3 3 3 3 3 3 3 3 3 3 3 3 4 4
6 5 5 6 5 5 5 5 6 5 5 5 5 3 4 5 5 5 5 5 5 4 5 5 4 4 4 4 4 3 3 3 3 3 3 3 3 3 3 3 3 4 4
6 6 6 5 5 5 5 5 5 5 5 5 5 5 4 4 4 4 4 4 4 4 4 4 4 4 3 3 3 3 3 3 3 3 3 3 3 3 3 3 4 4 4
6 6 6 5 5 5 5 5 5 5 5 5 5 5 5 4 4 5 4 4 4 4 3 4 4 4 5 4 3 3 3 4 5 4 4 4 4 4 3 3 3 4 3
6 6 6 5 5 5 5 5 5 5 5 6 5 5 5 5 4 4 4 3 3 3 4 4 3 4 5 5 4 3 3 4 5 6 4 3 4 3 3 3 2 3 3
6 6 6 5 5 5 5 5 5 5 5 5 5 4 5 5 4 4 3 3 3 3 3 3 4 5 5 5 4 4 2 2 4 6 5 3 3 3 3 2 3 3 3
Wind_Direction
3 7 13 7 359 350 353 357 353 337 316 288 281 279 281 273 265 259 262 252 243 242 243 240 242 249 249 254 251 248 248 250 257 264 259 257 246 252 243 245 240 236 228
14 14 14 12 7 351 352 349 349 334 303 283 282 283 290 283 272 261 262 256 250 245 242 240 240 238 239 246 252 253 254 256 255 261 263 258 251 248 247 250 246 239 244
7 13 8 359 356 351 351 355 355 343 312 293 291 292 299 294 283 277 268 260 255 252 247 241 241 238 241 248 253 254 256 254 255 257 259 258 256 250 249 249 250 248 250
355 356 1 355 351 351 350 343 329 322 307 302 300 297 293 283 283 282 274 264 260 254 249 247 246 242 244 248 250 251 253 256 255 257 259 258 255 249 247 249 250 244 251
336 339 351 345 349 356 350 344 331 319 312 311 308 302 295 284 298 296 287 274 267 260 251 251 250 243 252 255 260 261 258 257 259 259 261 261 259 256 255 255 255 255 251
328 336 341 343 352 354 353 347 336 325 314 306 303 301 296 306 11 322 292 281 278 274 269 262 253 232 228 229 244 258 259 254 259 262 265 263 262 256 256 256 256 256 257
327 329 338 347 351 346 338 341 338 326 316 310 310 311 312 344 358 315 301 286 282 281 275 274 272 256 241 249 238 235 241 246 251 259 265 265 264 260 259 258 260 264 268
327 330 331 334 338 335 333 338 334 323 318 313 313 314 314 329 323 291 287 274 284 280 275 274 273 274 264 262 257 255 252 248 246 249 258 264 268 267 258 256 259 256 256
329 329 332 332 329 321 324 332 328 321 314 307 307 309 305 308 293 280 280 278 278 275 272 273 272 272 295 271 254 256 256 253 234 235 249 260 273 269 260 253 252 253 257
323 322 324 325 320 310 313 319 324 312 308 309 315 316 312 311 310 291 285 280 285 281 273 265 278 293 305 282 259 261 262 262 256 243 237 237 243 238 229 244 254 257 260
322 320 319 320 314 308 307 304 308 302 307 307 310 306 306 309 320 315 292 293 297 296 296 292 299 153 270 278 275 275 278 276 266 253 242 242 242 241 237 236 249 258 259
328 325 324 322 315 315 307 296 294 297 297 298 300 303 305 302 317 311 269 273 297 294 296 302 314 209 255 262 266 289 290 280 267 259 254 254 253 252 247 242 239 247 257
324 322 320 322 319 314 308 303 297 291 299 311 311 311 312 309 289 213 226 243 264 278 296 300 282 255 253 247 237 249 261 268 275 274 273 277 275 270 262 250 241 237 241
312 312 311 315 317 318 313 311 316 318 314 313 315 317 320 322 323 320 305 285 251 266 290 264 232 237 242 257 259 241 256 280 283 284 289 287 277 267 257 253 248 243 245
307 309 310 313 310 305 306 321 322 329 328 316 321 322 323 327 345 350 333 326 322 317 308 293 298 299 292 283 276 271 265 258 264 280 286 286 280 273 267 264 264 271 264
297 302 305 308 308 300 301 303 319 296 328 319 310 312 326 342 339 332 315 305 297 293 293 296 303 305 306 307 301 291 280 274 279 279 283 284 286 286 281 276 269 262 264
294 298 300 303 303 302 306 306 304 279 230 228 259 273 270 294 305 301 292 284 277 265 276 300 308 309 306 306 300 289 283 280 278 276 280 282 282 282 278 274 271 270 267
285 284 290 297 299 300 300 300 303 309 310 302 234 215 222 235 263 280 282 276 283 262 301 310 311 303 298 296 290 288 288 286 275 274 279 285 288 286 277 274 278 285 284
283 288 294 297 293 293 296 298 305 309 312 313 313 256 219 226 226 253 264 294 313 312 307 304 307 310 308 304 300 294 287 282 281 279 278 281 283 284 281 275 266 262 272
278 281 282 285 287 290 295 301 307 307 305 308 315 323 307 284 300 302 297 302 302 305 301 301 306 305 302 298 294 291 286 281 277 272 275 273 270 271 270 276 278 267 261
289 285 256 272 280 288 295 302 305 304 304 303 310 327 315 305 306 303 303 305 305 305 306 305 301 299 300 297 295 297 299 295 291 289 285 284 287 285 284 283 278 273 270
290 293 290 288 287 286 291 296 297 299 303 304 302 291 266 284 303 302 301 302 303 304 305 302 302 305 305 301 300 299 297 298 306 308 303 294 287 287 280 278 283 283 278
286 290 292 291 285 282 281 286 290 294 298 300 303 307 301 301 303 300 302 304 304 304 305 304 305 310 310 299 296 296 294 294 297 305 296 290 291 292 291 284 282 284 283
288 291 295 297 290 286 289 294 292 292 296 300 304 305 304 302 299 299 297 298 304 306 307 306 308 317 312 301 299 307 320 314 304 292 287 285 287 289 294 297 292 295 287
287 287 288 290 288 288 294 300 303 304 306 305 303 302 301 300 299 301 304 304 301 300 302 303 307 310 311 309 311 321 350 334 315 309 294 285 288 293 298 305 304 296 284
288 289 289 290 289 289 290 293 298 305 306 305 306 306 303 302 306 312 314 310 303 298 293 297 311 317 313 312 323 340 350 332 315 306 292 282 290 296 298 296 298 293 288
Height
1487 1486 1484 1484 1483 1482 1481 1479 1478 1477 1476 1475 1474 1473 1472 1471 1471 1471 1471 1470 1470 1470 1471 1471 1471 1471 1472 1472 1473 1474 1474 1475 1474 1474 1475 1474 1474 1474 1474 1473 1473 1473 1474
1487 1486 1485 1484 1483 1482 1480 1479 1477 1476 1475 1474 1473 1472 1471 1469 1468 1468 1468 1467 1467 1467 1467 1467 1467 1468 1468 1468 1469 1470 1470 1470 1471 1470 1470 1470 1470 1470 1469 1469 1470 1470 1470
1487 1486 1485 1484 1482 1481 1480 1478 1477 1476 1474 1473 1472 1470 1469 1468 1466 1466 1465 1464 1464 1464 1464 1464 1464 1464 1464 1465 1465 1466 1466 1467 1467 1467 1466 1466 1466 1466 1466 1466 1466 1465 1466
1487 1486 1485 1483 1482 1481 1479 1478 1476 1475 1473 1472 1470 1469 1468 1467 1465 1464 1463 1462 1461 1461 1460 1460 1461 1461 1461 1461 1461 1462 1462 1462 1463 1462 1462 1462 1462 1462 1462 1462 1462 1461 1462
1488 1486 1485 1484 1482 1480 1479 1477 1476 1474 1473 1471 1469 1468 1467 1466 1464 1462 1461 1460 1459 1458 1457 1457 1457 1457 1457 1457 1458 1458 1458 1458 1458 1458 1458 1458 1459 1458 1458 1458 1458 1458 1457
1487 1486 1485 1483 1482 1480 1479 1477 1475 1473 1472 1470 1468 1466 1465 1464 1462 1460 1459 1458 1457 1455 1455 1454 1454 1454 1453 1454 1453 1453 1454 1454 1454 1454 1454 1454 1454 1455 1455 1455 1455 1454 1454
1487 1486 1484 1483 1481 1480 1478 1477 1475 1473 1471 1469 1467 1465 1464 1462 1460 1458 1457 1455 1454 1453 1452 1451 1451 1451 1450 1450 1450 1449 1449 1449 1450 1450 1450 1450 1450 1451 1451 1451 1451 1451 1451
1486 1485 1484 1482 1481 1479 1478 1476 1474 1472 1470 1468 1466 1464 1462 1460 1458 1457 1455 1454 1452 1451 1450 1449 1448 1447 1447 1446 1446 1446 1446 1445 1445 1445 1445 1445 1446 1446 1447 1447 1447 1447 1447
1486 1484 1483 1481 1480 1478 1477 1475 1473 1471 1468 1467 1465 1462 1460 1458 1456 1455 1453 1452 1450 1449 1448 1447 1445 1444 1443 1443 1443 1442 1442 1442 1442 1442 1441 1442 1442 1442 1443 1443 1443 1444 1443
1485 1483 1482 1480 1479 1477 1475 1474 1472 1470 1468 1466 1463 1461 1459 1457 1455 1453 1451 1450 1449 1448 1446 1444 1443 1442 1440 1440 1439 1439 1439 1439 1439 1439 1438 1438 1438 1438 1438 1439 1439 1440 1439
1483 1482 1480 1478 1477 1475 1474 1472 1470 1469 1466 1464 1462 1459 1457 1455 1453 1451 1449 1448 1447 1446 1445 1443 1441 1439 1438 1437 1436 1436 1436 1436 1436 1435 1435 1435 1435 1434 1434 1434 1434 1435 1435
1482 1480 1479 1477 1476 1474 1472 1471 1469 1467 1465 1463 1460 1458 1456 1453 1452 1450 1448 1447 1445 1444 1442 1441 1439 1437 1436 1435 1434 1433 1433 1433 1433 1432 1432 1432 1431 1431 1431 1430 1430 1430 1430
1481 1479 1478 1476 1474 1472 1471 1469 1468 1466 1464 1462 1459 1457 1455 1452 1450 1448 1447 1445 1443 1442 1440 1438 1437 1435 1434 1433 1432 1431 1430 1430 1429 1429 1429 1428 1428 1428 1427 1427 1427 1426 1426
1479 1478 1476 1475 1473 1471 1469 1468 1467 1465 1463 1461 1458 1456 1453 1451 1450 1448 1446 1444 1442 1440 1438 1436 1435 1433 1432 1431 1430 1429 1428 1428 1427 1426 1426 1425 1425 1425 1424 1424 1424 1424 1423
1478 1476 1475 1473 1471 1469 1468 1466 1465 1463 1461 1459 1457 1455 1453 1450 1448 1446 1444 1442 1440 1438 1436 1435 1434 1432 1431 1430 1429 1428 1427 1426 1425 1425 1424 1423 1423 1422 1422 1422 1421 1421 1420
1476 1475 1474 1472 1470 1468 1467 1465 1463 1461 1459 1457 1455 1453 1450 1448 1446 1444 1441 1440 1438 1436 1434 1433 1432 1430 1429 1428 1427 1426 1425 1424 1423 1423 1422 1421 1421 1420 1420 1419 1419 1418 1418
1474 1473 1472 1470 1469 1467 1465 1463 1461 1459 1457 1454 1452 1451 1449 1446 1444 1442 1440 1438 1436 1434 1433 1431 1430 1429 1427 1426 1424 1423 1423 1422 1421 1420 1420 1419 1418 1418 1417 1417 1416 1416 1415
1472 1471 1470 1468 1466 1465 1463 1461 1459 1457 1455 1453 1451 1449 1447 1445 1442 1440 1438 1436 1434 1433 1431 1430 1429 1427 1426 1424 1423 1421 1420 1420 1419 1418 1417 1417 1416 1416 1415 1415 1414 1414 1413
1470 1469 1467 1466 1464 1463 1461 1459 1458 1455 1453 1451 1450 1447 1445 1443 1441 1438 1436 1435 1434 1432 1430 1428 1427 1426 1424 1422 1421 1419 1418 1417 1417 1416 1415 1415 1414 1414 1413 1413 1413 1412 1411
1467 1466 1465 1463 1462 1461 1459 1457 1456 1454 1452 1450 1448 1446 1444 1442 1440 1438 1436 1434 1432 1431 1429 1427 1426 1424 1422 1420 1419 1418 1417 1416 1415 1414 1414 1413 1412 1412 1411 1411 1411 1410 1409
1466 1464 1462 1461 1460 1458 1457 1455 1454 1452 1450 1448 1447 1445 1442 1441 1439 1436 1434 1433 1431 1429 1427 1426 1424 1422 1421 1419 1418 1416 1415 1414 1414 1413 1412 1412 1411 1410 1410 1409 1409 1408 1408
1463 1462 1460 1459 1457 1456 1455 1453 1451 1450 1448 1446 1444 1442 1440 1438 1437 1435 1433 1431 1429 1427 1426 1424 1422 1421 1419 1417 1416 1415 1414 1413 1412 1412 1411 1410 1410 1409 1408 1408 1407 1406 1406
1460 1459 1457 1456 1454 1453 1452 1450 1449 1447 1445 1443 1442 1440 1438 1436 1434 1433 1431 1429 1427 1426 1424 1422 1420 1419 1417 1416 1415 1414 1413 1412 1411 1410 1410 1409 1408 1407 1407 1406 1405 1404 1404
1457 1456 1454 1453 1452 1450 1449 1448 1446 1444 1443 1441 1439 1437 1435 1434 1432 1430 1429 1427 1425 1423 1422 1420 1419 1417 1416 1414 1413 1412 1411 1410 1409 1409 1408 1408 1407 1406 1405 1405 1404 1403 1402
1455 1453 1452 1450 1449 1448 1446 1445 1443 1442 1440 1438 1436 1434 1433 1431 1429 1428 1426 1425 1423 1421 1419 1418 1417 1415 1414 1413 1412 1411 1409 1408 1408 1407 1407 1406 1406 1405 1404 1403 1403 1402 1401
1452 1450 1449 1448 1446 1445 1444 1442 1441 1439 1437 1436 1434 1432 1430 1428 1427 1425 1424 1422 1420 1419 1417 1416 1415 1414 1412 1411 1410 1408 1408 1407 1406 1406 1405 1405 1404 1404 1403 1402 1401 1400 1399